Regional Weather Roundup
Issued by NWS

Home | Current Version | Previous Version | Graphics & Text | Print | Product List | Glossary On
Versions: 1 2 3 4 5 6 7 8 9 10 11 12 13 14 15 16 17 18 19 20 21 22 23 24 25 26 27 28 29 30 31 32 33 34 35 36 37 38 39 40 41 42 43 44 45 46 47 48 49 50
000
ASUS43 KLOT 272321
RWRIL

ILLINOIS REGIONAL WEATHER ROUNDUP
NATIONAL WEATHER SERVICE CHICAGO/ROMEOVILLE IL
600 PM CDT FRI MAR 27 2015

NOTE: "FAIR" INDICATES FEW OR NO CLOUDS BELOW 12,000 FEET WITH NO
SIGNIFICANT WEATHER AND/OR OBSTRUCTIONS TO VISIBILITY.

* THESE STATIONS ARE NOT UNDER NWS QUALITY CONTROL. THEY ALSO MAY NOT
  REPORT WEATHER SUCH AS PRECIPITATION OR FOG.

ILZ001-002-007-009-015-016-024-280000-
NORTHWEST ILLINOIS

CITY           SKY/WX    TMP DP  RH WIND       PRES   REMARKS
MOLINE         SUNNY     38   6  26 N7        30.15F WCI  33
STERLING*      SUNNY     34  10  37 N10       30.18R WCI  26
SAVANNA*       SUNNY     35   8  31 N9        30.17S WCI  28
$$

ILZ003-004-008-010-011-017-018-280000-
NORTH CENTRAL ILLINOIS

CITY           SKY/WX    TMP DP  RH WIND       PRES   REMARKS
ROCKFORD       SUNNY     34   5  29 N9        30.17S WCI  27
FREEPORT*      SUNNY     32   7  35 N10       30.18S WCI  23
ROCHELLE*      SUNNY     32   9  38 N10       30.16S WCI  24
DE KALB*       SUNNY     30  10  42 N9        30.16R WCI  21
PERU*          SUNNY     34  10  35 N8        30.17R WCI  28
$$

ILZ005-006-012>014-019>023-280000-
NORTHEAST ILLINOIS

CITY           SKY/WX    TMP DP  RH WIND       PRES   REMARKS
CHICAGO-OHARE  MOSUNNY   28  13  53 NE15      30.16R WCI  16
CHICAGO-MIDWAY MOSUNNY   30  13  49 NE15G21   30.17R WCI  19
AURORA         SUNNY     33   8  35 N10       30.15R WCI  25
LANSING*       MOSUNNY   27  12  52 NE15G21   30.17R WCI  15
JOLIET*        SUNNY     33  11  40 NE9       30.16R WCI  25
WAUKEGAN       SUNNY     25  13  60 N13       30.17R WCI  14
DUPAGE AIRPORT SUNNY     30  12  47 E12       30.14R WCI  20
KANKAKEE*      SUNNY     30  14  51 NE10      30.16R WCI  21
WHEELING       SUNNY     27  13  55 NE10G20   30.19R WCI  17
MORRIS*        SUNNY     33  10  37 N9        30.15R WCI  26
ROMEOVILLE*    SUNNY     31  12  45 NE13      30.16R WCI  21
NORTHERLY ISL    N/A     27  15  61 N15         N/A  WCI  15
$$

LMZ740>746-280000-
SOUTHERN LAKE MICHIGAN

STATION/POSITION SKY/WX   TEMP    WIND        PRES    VSBY  WAVE
                          AIR SEA DIR/SP/G                  HT/PER
                          (F)     (DEG/KT/KT) (MB)    (MI)  (FT/S)
HARRISON CRIB              24     360/ 20/ 24   N/A
BURNHAM HARBOR             26     360/ 13/ 18   N/A
CALUMET HARBOR             26     340/ 15/ 19 1020.4S
BURNS HARBOR               25      20/ 16/ 24 1021.7S
MICHIGAN CITY              24     340/ 24/ 28   N/A
$$

ILZ025>027-034>036-040-047-049-050-058-095>099-280000-
WEST-CENTRAL ILLINOIS

CITY           SKY/WX    TMP DP  RH WIND       PRES   REMARKS
QUINCY         SUNNY     40   9  28 NE9       30.15R
GALESBURG*     SUNNY     36  11  35 N10       30.16S WCI  28
MACOMB*        SUNNY     37  11  34 N9        30.18S WCI  30
JACKSONVILLE*  SUNNY     41  14  33 N10G16    30.15S
PITTSFIELD*    SUNNY     40  16  37 N12       30.15S
$$

ILZ028>032-037-038-041>044-048-051>054-059>061-280000-
CENTRAL ILLINOIS

CITY           SKY/WX    TMP DP  RH WIND       PRES   REMARKS
PONTIAC        MOSUNNY   34  15  45 NW13      30.16S WCI  25
BLOOMINGTON    MOSUNNY   35  14  42 N14       30.15R WCI  26
DECATUR        MOSUNNY   36  13  38 N10       30.15R WCI  28
PEORIA         SUNNY     37  11  34 N9        30.17R WCI  30
LACON*         SUNNY     34  11  38 N10       30.16S WCI  26
LINCOLN*       SUNNY     37  13  36 NW6G16    30.17R WCI  33
SPRINGFIELD    SUNNY     38  12  34 N12       30.16R WCI  30
TAYLORVILLE    SUNNY     36  18  48 N15       30.15R WCI  26
$$

ILZ033-039-045-046-055>057-062-063-280000-
EAST-CENTRAL ILLINOIS

CITY           SKY/WX    TMP DP  RH WIND       PRES   REMARKS
CHAMPAIGN      MOSUNNY   35  11  36 N10       30.13R WCI  27
DANVILLE*      PTSUNNY   31  16  55 N16       30.11R WCI  20
RANTOUL*       SUNNY     34  12  40 N12       30.14R WCI  25
MATTOON        CLOUDY    35  18  49 N18       30.12R WCI  24
PARIS*         MOSUNNY   34  17  50 N10G17    30.13R WCI  26
$$

ILZ079-100>102-280000-
SOUTHWEST ILLINOIS

CITY           SKY/WX    TMP DP  RH WIND       PRES   REMARKS
ALTON          PTSUNNY   41  16  36 NW15      30.15S
BELLEVILLE     CLOUDY    40  19  42 NW14      30.14S
CAHOKIA*       PTSUNNY   41  21  44 NW10      30.15S
SPARTA*        PTSUNNY   38  20  49 N10       30.16S WCI  31
$$

ILZ064>066-069>071-074>076-080>082-084>086-088>090-092>094-280000-
SOUTH-CENTRAL ILLINOIS

CITY           SKY/WX    TMP DP  RH WIND       PRES   REMARKS
CARBONDALE     PTSUNNY   38  21  50 N10       30.15R WCI  31
CAIRO*         CLOUDY    39  24  54 NW14      30.15R WCI  31
EFFINGHAM*     MOSUNNY   36  13  38 NW10G17   30.15R WCI  29
MARION         CLOUDY    39  19  45 N17       30.16R WCI  30
MT. VERNON     PTSUNNY   37  18  44 N3G21     30.15R
CENTRALIA*     CLOUDY    39  20  47 NW9       30.13S WCI  33
SALEM*         CLOUDY    40  21  46 NW12G17   30.14R
METROPOLIS*    CLOUDY    40  24  53 N9        30.13R
$$

ILZ067-068-072-073-078-083-087-091-280000-
SOUTHEAST ILLINOIS

CITY           SKY/WX    TMP DP  RH WIND       PRES   REMARKS
LAWRENCEVILLE  PTSUNNY   36  20  52 N15       30.12R WCI  27
FLORA*         MOSUNNY   37  19  49 NW10G18   30.13R WCI  30
FAIRFIELD*     CLOUDY    38  19  45 NW10G16   30.12S WCI  32
HARRISBURG*    CLOUDY    38  20  47 NW8       30.15R WCI  32
ROBINSON*      PTSUNNY   34  23  64 N13       30.14R WCI  25
CARMI*         PTSUNNY   38  17  41 NW13      30.12R WCI  30
$$

ABBREVIATIONS USED IN REMARKS
   TC - TEMPERATURE IN CELSIUS
  WCI - WIND CHILL INDEX
   HX - HEAT INDEX
  VSB - VISIBILITY
$$



USA.gov is the U.S. government's official web portal to all federal, state and local government web resources and services.